차종별기사보기
차종별 기사검색 close
무엇이든 물어보세요 궁금한 질문에 답변을 드리는 공간
List of Articles
번호 제목 글쓴이 날짜 조회
770 결국 소나타.. 하이브리드.. 디젤.. 1.6터보.. ( ... 2 new 블링 9 시간 전 19
769 프라이드는 단종됐나요??? 5 updatefilefile Mr.홉 18 시간 전 107
768 니로 페이스리프트? 4 제닉스 17-07-24 69
767 모그 스팅어 질문 아스티카 17-07-24 94
766 소나타&K5 하이브리드 실제 연비는??.. 3 블링 17-07-24 202
765 니로 차량 브레이크 문제가 있는지 없는지 소비자... 4 블랙깜깜 17-07-22 1065
764 차량 교환 6 차도남 17-07-21 1588
763 서킷에서 보이는 차들에 장착되는 앞범퍼의 저 빨... 5 filefile 아이언맨 17-07-21 1066
762 차유리가 파손돼었는데 원인이 뭘까요 3 노프롬 17-07-21 1449
761 벤츠SUV glc250d 몇cc인가요? 3 펄스톤 17-07-21 1450
760 모터그래프스티커 신청 어찌하나요?? 꿈장이 17-07-21 1591
759 i30 1.6디젤.. 어떨까요?.. 15 블링 17-07-21 1567
758 회원 정보 및 마이페이지에 대해 궁금한 점. 1 플린 17-07-20 1907
757 어제 고속도로에서 봤는데 무슨차인가요? 2 filefile 달려라싼타페 17-07-20 2219
756 오즈모 구입가능한가요 모터 그래프 보유분중에서요 2 둥근돌 17-07-20 2160
755 니로 엔진오일 증가 제닉스 17-07-18 3072
754 아반떼LPI차 100km/h~130km/h는 몇 rpm인가요? 2 지웅이 17-07-16 3900
753 머플러가 수도꼭지형이면 출력이 않좋나요? 2 지웅이 17-07-16 3935
752 독일 3사 세단 추천좀해주세요 1 canada 17-07-16 4146
751 니로 브레이크 소음 3 JasonJi 17-07-15 4487
750 저희 아파트에서 위장막 쳐진 카니발 봤어요 4 프리우스 17-07-14 5030
749 테슬라 모델3 1 Ljhyuk 17-07-13 5290
748 아반떼LPI차량은 힘이 많이 없나요? 지웅이 17-07-13 5337
747 테스트 요청...출발시 밟아서 고 RPM 쓰면 차가 ... 3 미스트번 17-07-13 5552
746 자동차의 수명은 보통 몇 년 인가요? 4 지웅이 17-07-12 5954
745 LPI차량과 가솔린차량의 연비..둘 중 무엇이 더 ... 4 지웅이 17-07-12 5831
744 쏘나타랑 아반떼 둘 중 연비좋은건 무엇인가요? 3 지웅이 17-07-12 5919
743 LPI차량 갠찮나요? 1 지웅이 17-07-12 5877
742 모바일에서 페이스북 로그인시 오류문의 7 filefile 레드불 17-07-11 6283
741 강릉 속초 양양 맛집이나 가볼만한 곳 아시는분 ... 12 요다 17-07-09 7471
Board Pagination 1 2 3 4 5 6 7 8 9 10 ... 26
/ 26
게시판